Regina,

4:07 AM CST on November 25, 2017 (GMT -0600)
Regina

Weather History for CYQR - October, 2012

Change the Weather History Date:

Sunday, October 28, 2012

  Actual Average Record
Temperature  
Mean Temperature 20 °F -  
Max Temperature 28 °F 33 °F 62 °F (1998)
Min Temperature 14 °F 14 °F 6 °F (2010)
Degree Days  
Heating Degree Days 44    
Moisture  
Dew Point 16 °F    
Average Humidity 75    
Maximum Humidity 86    
Minimum Humidity 52    
Precipitation  
Precipitation 0.00 in 0.02 in - ()
Sea Level Pressure  
Sea Level Pressure 30.21 in    
Wind  
Wind Speed 14 mph ()    
Max Wind Speed 25 mph    
Max Gust Speed 31 mph    
Visibility 11.4 miles    
Events Snow    
Averages and records for this station are not official NWS values.
T = Trace of Precipitation, MM = Missing Value Source: Averaged Metar Reports

Daily Weather History Graph

Daily Weather History Graph

Search for Another Location

Airport or City:

Trip Planner

Search our weather history database for the weather conditions in past years. The results will help you decide how hot, cold, wet, or windy it might be!

Date:

Astronomy

Oct. 28, 2012 Rise Set
Actual Time 7:43 AM CST 5:40 PM CST
Civil Twilight 7:09 AM CST 6:14 PM CST
Nautical Twilight 6:31 AM CST 6:52 PM CST
Astronomical Twilight 5:53 AM CST 7:30 PM CST
Moon 4:59 PM CST (10/28) 6:36 AM CST (10/28)
Length of Visible Light 11h 04m
Length of Day
9h 56m
Waxing Gibbous, 99% of the Moon is Illuminated
Oct 28
Waxing Gibbous
Oct 29
Full
Nov 6
Last Quarter
Nov 13
New
Nov 20
First Quarter

Hourly Weather History & Observations

Time (CST) Temp. Windchill Dew Point Humidity Pressure Visibility Wind Dir Wind Speed Gust Speed Precip Events Conditions
12:00 AM 16 °F - 10 °F 69% 30.35 in 9 mi ESE 8.1 mph - -  
12:00 AM 15.8 °F 5.1 °F 10.4 °F 79% 30.35 in 15.0 mi ESE 8.1 mph - N/A   Mostly Cloudy
1:00 AM 14.0 °F 3.9 °F 8.6 °F 79% 30.35 in 15.0 mi SE 6.9 mph - N/A   Mostly Cloudy
2:00 AM 15.8 °F 3.4 °F 10.4 °F 79% 30.34 in 15.0 mi ESE 10.4 mph - N/A   Mostly Cloudy
3:00 AM 17.6 °F 5.7 °F 10.4 °F 73% 30.31 in 15.0 mi SE 10.4 mph - N/A   Mostly Cloudy
4:00 AM 17.6 °F 5.0 °F 10.4 °F 73% 30.30 in 15.0 mi SE 11.5 mph - N/A   Mostly Cloudy
5:00 AM 17.6 °F 4.3 °F 10.4 °F 73% 30.28 in 15.0 mi ESE 12.7 mph - N/A   Overcast
6:00 AM 18 °F - 12 °F 66% 30.27 in 9 mi ESE 13.8 mph - -   Overcast
6:00 AM 17.6 °F 3.7 °F 12.2 °F 79% 30.27 in 15.0 mi ESE 13.8 mph - N/A   Overcast
7:00 AM 17.6 °F 3.2 °F 12.2 °F 79% 30.26 in 15.0 mi ESE 15.0 mph - N/A   Overcast
8:00 AM 19.4 °F 5.0 °F 12.2 °F 74% 30.24 in 15.0 mi SE 16.1 mph 21.9 mph N/A   Overcast
9:00 AM 19.4 °F 4.1 °F 12.2 °F 74% 30.24 in 15.0 mi SE 18.4 mph - N/A   Overcast
10:00 AM 21.2 °F 6.4 °F 14.0 °F 74% 30.22 in 15.0 mi SE 18.4 mph 24.2 mph N/A   Overcast
11:00 AM 23.0 °F 8.7 °F 14.0 °F 68% 30.21 in 15.0 mi SE 18.4 mph 24.2 mph N/A   Overcast
12:00 PM 26 °F - 15 °F 52% 30.19 in 9 mi SE 21.9 mph - -  
12:00 PM 26.6 °F 13.4 °F 15.8 °F 64% 30.19 in 15.0 mi SE 18.4 mph 28.8 mph N/A   Overcast
12:05 PM 26.6 °F 13.8 °F - N/A% - 12.0 mi SE 17.3 mph 27.6 mph N/A Snow Light Snow Showers
1:00 PM 26.6 °F 12.4 °F 17.6 °F 69% 30.16 in 8.0 mi SE 21.9 mph 29.9 mph N/A Snow Light Snow Showers
2:00 PM 26.6 °F 12.4 °F 19.4 °F 74% 30.14 in 9.0 mi SE 21.9 mph 27.6 mph N/A Snow Light Snow Showers
2:18 PM 26.6 °F 12.4 °F - N/A% - 2.5 mi SE 21.9 mph 29.9 mph N/A Snow Light Snow
2:35 PM 26.6 °F 11.7 °F - N/A% - 2.0 mi SE 24.2 mph - N/A Snow Light Snow
3:00 PM 26.6 °F 12.7 °F 21.2 °F 80% 30.12 in 2.5 mi SE 20.7 mph 29.9 mph N/A Snow Light Snow
4:00 PM 26.6 °F 12.7 °F 21.2 °F 80% 30.11 in 2.5 mi SE 20.7 mph 29.9 mph N/A Snow Light Snow
4:31 PM 26.6 °F 12.7 °F - N/A% - 4.0 mi SE 20.7 mph 28.8 mph N/A Snow Light Snow
5:00 PM 26.6 °F 13.4 °F 21.2 °F 80% 30.11 in 6.0 mi SE 18.4 mph 28.8 mph N/A Snow Light Snow
5:34 PM 26.6 °F 13.1 °F - N/A% - 15.0 mi SE 19.6 mph 27.6 mph N/A Snow Low Drifting Snow
5:50 PM 26.6 °F 13.4 °F - N/A% - 12.0 mi SE 18.4 mph 28.8 mph N/A Snow Light Snow
6:00 PM 27 °F - 21 °F 71% 30.11 in 6 mi SE 23.0 mph - -   Overcast
6:00 PM 26.6 °F 12.4 °F 21.2 °F 80% 30.11 in 12.0 mi SE 21.9 mph 28.8 mph N/A Snow Light Snow
7:00 PM 26.6 °F 11.4 °F 21.2 °F 80% 30.11 in 10.0 mi SE 25.3 mph 31.1 mph N/A Snow Light Snow
8:53 PM 26.6 °F 12.4 °F - N/A% - 15.0 mi SE 21.9 mph - N/A Snow Light Snow
9:00 PM 26.6 °F 11.7 °F 23.0 °F 86% 30.09 in 15.0 mi SE 24.2 mph - N/A Snow Light Snow
10:00 PM 26.6 °F 12.4 °F 23.0 °F 86% 30.09 in 15.0 mi SE 21.9 mph 27.6 mph N/A Snow Light Snow
11:00 PM 26.6 °F 13.8 °F 23.0 °F 86% 30.09 in 12.0 mi SE 17.3 mph 27.6 mph N/A Snow Light Snow
11:43 PM 28.4 °F 14.7 °F - N/A% - 15.0 mi SE 21.9 mph - N/A Snow Light Snow